QPF
0.00 0.00 0.00 0.00 0.00 0.00 0.00 0.00 0.00 0.00 0.00 0.00 0.00 0.00 0.00 0.00 0.00 0.00 0.00 0.00 0.00 0.00 0.00 0.01 0.01 0.00 0.00 0.01 0.01 0.02 0.03 0.06 0.07 0.08 0.07 0.06 0.04 0.05 0.04 0.04 0.03 0.03 0.03 0.03
0.00 0.00 0.00 0.00 0.00 0.00 0.00 0.00 0.00 0.00 0.00 0.00 0.00 0.00 0.00 0.00 0.00 0.00 0.00 0.00 0.00 0.00 0.01 0.01 0.01 0.01 0.01 0.01 0.02 0.02 0.03 0.06 0.07 0.06 0.06 0.05 0.04 0.03 0.03 0.03 0.04 0.05 0.04 0.04
0.00 0.00 0.00 0.00 0.00 0.00 0.00 0.00 0.00 0.00 0.00 0.00 0.00 0.00 0.00 0.00 0.00 0.00 0.00 0.00 0.00 0.01 0.01 0.02 0.02 0.02 0.02 0.02 0.02 0.02 0.02 0.03 0.04 0.03 0.03 0.03 0.03 0.03 0.02 0.03 0.04 0.04 0.04 0.04
0.00 0.00 0.00 0.00 0.00 0.00 0.00 0.00 0.00 0.00 0.00 0.00 0.00 0.00 0.00 0.00 0.01 0.01 0.00 0.01 0.01 0.02 0.02 0.02 0.03 0.03 0.03 0.02 0.02 0.02 0.03 0.04 0.04 0.03 0.03 0.03 0.03 0.03 0.03 0.04 0.05 0.05 0.04 0.04
0.01 0.01 0.00 0.01 0.01 0.01 0.01 0.01 0.00 0.01 0.00 0.00 0.00 0.00 0.00 0.00 0.01 0.01 0.01 0.01 0.01 0.02 0.02 0.02 0.02 0.02 0.02 0.02 0.02 0.02 0.02 0.02 0.03 0.03 0.03 0.03 0.03 0.03 0.04 0.04 0.04 0.05 0.05 0.04
0.03 0.02 0.01 0.01 0.01 0.01 0.02 0.03 0.01 0.01 0.01 0.01 0.01 0.02 0.02 0.01 0.01 0.01 0.02 0.02 0.03 0.03 0.02 0.02 0.02 0.02 0.02 0.02 0.03 0.02 0.03 0.02 0.03 0.03 0.03 0.03 0.04 0.04 0.05 0.05 0.05 0.05 0.04 0.04
0.05 0.05 0.03 0.01 0.01 0.03 0.05 0.04 0.02 0.02 0.02 0.03 0.03 0.03 0.03 0.02 0.02 0.02 0.03 0.03 0.03 0.03 0.02 0.02 0.01 0.02 0.02 0.02 0.03 0.02 0.03 0.04 0.04 0.04 0.04 0.06 0.06 0.05 0.04 0.04 0.05 0.06 0.05 0.05
0.06 0.07 0.06 0.03 0.03 0.05 0.04 0.03 0.02 0.03 0.05 0.04 0.03 0.03 0.04 0.03 0.02 0.03 0.03 0.02 0.03 0.03 0.02 0.03 0.02 0.02 0.02 0.02 0.03 0.03 0.04 0.05 0.06 0.07 0.09 0.10 0.10 0.07 0.06 0.05 0.06 0.07 0.08 0.07
0.07 0.06 0.06 0.05 0.10 0.12 0.07 0.04 0.03 0.04 0.05 0.05 0.05 0.04 0.06 0.07 0.05 0.04 0.03 0.03 0.03 0.02 0.02 0.02 0.02 0.02 0.02 0.02 0.03 0.03 0.04 0.05 0.05 0.05 0.07 0.09 0.09 0.08 0.06 0.05 0.05 0.05 0.06 0.07
0.08 0.10 0.09 0.08 0.11 0.13 0.11 0.08 0.07 0.06 0.05 0.05 0.05 0.06 0.07 0.07 0.06 0.05 0.03 0.02 0.02 0.02 0.02 0.02 0.03 0.03 0.03 0.03 0.02 0.03 0.03 0.03 0.03 0.03 0.03 0.03 0.03 0.04 0.04 0.04 0.04 0.04 0.05 0.05
0.14 0.16 0.16 0.14 0.12 0.11 0.11 0.10 0.09 0.10 0.08 0.06 0.07 0.08 0.08 0.06 0.04 0.04 0.03 0.02 0.02 0.02 0.02 0.02 0.02 0.03 0.03 0.03 0.02 0.02 0.02 0.02 0.03 0.03 0.03 0.03 0.03 0.02 0.02 0.02 0.02 0.02 0.02 0.02
0.13 0.13 0.16 0.18 0.14 0.12 0.12 0.14 0.14 0.13 0.11 0.08 0.08 0.08 0.09 0.06 0.05 0.04 0.03 0.02 0.02 0.02 0.02 0.02 0.02 0.02 0.02 0.01 0.01 0.01 0.01 0.01 0.02 0.02 0.02 0.02 0.01 0.01 0.01 0.01 0.02 0.02 0.02 0.02
0.11 0.11 0.16 0.19 0.15 0.14 0.16 0.22 0.23 0.18 0.13 0.10 0.08 0.08 0.07 0.06 0.05 0.04 0.05 0.05 0.04 0.02 0.01 0.01 0.01 0.01 0.01 0.01 0.01 0.01 0.01 0.01 0.01 0.00 0.01 0.01 0.01 0.01 0.01 0.01 0.01 0.01 0.01 0.01
0.10 0.12 0.15 0.19 0.19 0.16 0.16 0.20 0.21 0.16 0.11 0.09 0.07 0.07 0.06 0.05 0.03 0.02 0.02 0.03 0.03 0.02 0.01 0.01 0.00 0.00 0.00 0.01 0.01 0.01 0.01 0.01 0.01 0.00 0.01 0.01 0.01 0.01 0.01 0.01 0.00 0.00 0.01 0.01
0.09 0.09 0.10 0.12 0.12 0.12 0.13 0.15 0.16 0.13 0.09 0.07 0.06 0.06 0.06 0.06 0.05 0.04 0.03 0.02 0.02 0.01 0.01 0.01 0.01 0.01 0.00 0.00 0.00 0.01 0.01 0.02 0.01 0.01 0.01 0.01 0.01 0.01 0.01 0.01 0.01 0.01 0.01 0.02
0.09 0.08 0.09 0.10 0.10 0.10 0.10 0.12 0.12 0.10 0.07 0.05 0.03 0.03 0.03 0.03 0.03 0.03 0.02 0.02 0.01 0.01 0.01 0.00 0.00 0.00 0.00 0.00 0.00 0.00 0.00 0.01 0.01 0.01 0.01 0.01 0.01 0.01 0.01 0.01 0.01 0.00 0.01 0.01
0.09 0.10 0.10 0.09 0.10 0.10 0.09 0.10 0.11 0.09 0.06 0.05 0.03 0.03 0.02 0.02 0.02 0.02 0.01 0.01 0.00 0.00 0.00 0.00 0.00 0.00 0.00 0.00 0.00 0.00 0.00 0.00 0.00 0.00 0.00 0.00 0.00 0.00 0.00 0.00 0.00 0.00 0.00 0.00
0.09 0.09 0.09 0.09 0.09 0.08 0.07 0.08 0.09 0.07 0.05 0.04 0.03 0.03 0.02 0.01 0.01 0.01 0.00 0.00 0.00 0.00 0.00 0.00 0.00 0.00 0.00 0.00 0.00 0.00 0.00 0.00 0.00 0.00 0.00 0.00 0.00 0.00 0.00 0.00 0.00 0.00 0.00 0.00
0.10 0.10 0.09 0.07 0.05 0.04 0.04 0.04 0.05 0.04 0.02 0.01 0.01 0.01 0.00 0.00 0.00 0.00 0.00 0.00 0.00 0.00 0.00 0.00 0.00 0.00 0.00 0.00 0.00 0.00 0.00 0.00 0.00 0.00 0.00 0.00 0.00 0.00 0.00 0.00 0.00 0.00 0.00 0.00
0.09 0.08 0.07 0.06 0.05 0.04 0.03 0.04 0.04 0.03 0.01 0.01 0.01 0.00 0.00 0.00 0.00 0.01 0.01 0.01 0.01 0.01 0.00 0.00 0.00 0.00 0.00 0.00 0.00 0.00 0.00 0.00 0.00 0.00 0.00 0.00 0.00 0.00 0.00 0.00 0.00 0.00 0.00 0.00
0.06 0.06 0.07 0.06 0.06 0.05 0.04 0.04 0.04 0.04 0.03 0.02 0.02 0.02 0.01 0.01 0.01 0.01 0.01 0.01 0.00 0.00 0.00 0.00 0.00 0.00 0.00 0.00 0.00 0.00 0.00 0.00 0.00 0.01 0.00 0.00 0.00 0.00 0.00 0.00 0.00 0.00 0.00 0.00
0.05 0.06 0.06 0.04 0.03 0.03 0.03 0.03 0.03 0.03 0.03 0.03 0.02 0.02 0.01 0.01 0.01 0.01 0.00 0.00 0.00 0.00 0.00 0.00 0.00 0.00 0.00 0.00 0.00 0.00 0.00 0.00 0.00 0.00 0.00 0.00 0.00 0.00 0.00 0.00 0.01 0.01 0.01 0.01
0.05 0.04 0.04 0.03 0.02 0.02 0.01 0.02 0.01 0.01 0.01 0.01 0.01 0.01 0.01 0.00 0.00 0.00 0.00 0.00 0.00 0.00 0.00 0.00 0.00 0.00 0.00 0.00 0.00 0.00 0.00 0.00 0.00 0.00 0.00 0.00 0.00 0.00 0.01 0.01 0.01 0.01 0.01 0.01
0.05 0.03 0.03 0.03 0.01 0.01 0.01 0.01 0.00 0.00 0.00 0.00 0.01 0.01 0.00 0.01 0.01 0.00 0.00 0.00 0.00 0.00 0.00 0.00 0.00 0.00 0.00 0.00 0.00 0.00 0.00 0.00 0.00 0.00 0.00 0.00 0.00 0.01 0.01 0.01 0.01 0.01 0.01 0.01
0.04 0.03 0.03 0.02 0.01 0.00 0.00 0.00 0.00 0.00 0.00 0.00 0.00 0.00 0.00 0.00 0.00 0.00 0.00 0.00 0.00 0.00 0.00 0.00 0.00 0.00 0.00 0.00 0.00 0.00 0.00 0.00 0.00 0.00 0.00 0.01 0.00 0.00 0.01 0.01 0.01 0.01 0.01 0.01
0.05 0.04 0.02 0.01 0.00 0.00 0.00 0.00 0.00 0.00 0.00 0.00 0.00 0.00 0.00 0.00 0.00 0.01 0.01 0.01 0.00 0.00 0.00 0.00 0.00 0.00 0.00 0.00 0.00 0.00 0.00 0.00 0.00 0.00 0.00 0.00 0.00 0.00 0.01 0.01 0.01 0.01 0.01 0.01
0.03 0.02 0.01 0.00 0.00 0.00 0.00 0.00 0.00 0.00 0.00 0.00 0.00 0.00 0.00 0.00 0.00 0.01 0.01 0.00 0.00 0.00 0.00 0.00 0.00 0.00 0.00 0.00 0.00 0.00 0.00 0.00 0.00 0.00 0.01 0.01 0.01 0.01 0.01 0.01 0.01 0.01 0.01 0.01
MSLP
1007.68 1007.71 1007.74 1007.78 1007.79 1007.77 1007.68 1007.49 1007.19 1006.78 1006.28 1005.74 1005.19 1004.71 1004.35 1004.15 1004.11 1004.25 1004.54 1004.94 1005.41 1005.92 1006.42 1006.90 1007.35 1007.78 1008.21 1008.64 1009.08 1009.54 1010.01 1010.49 1010.95 1011.40 1011.81 1012.18 1012.53 1012.85 1013.17 1013.49 1013.82 1014.17 1014.53 1014.90
1008.14 1008.12 1008.05 1007.94 1007.79 1007.60 1007.36 1007.07 1006.71 1006.30 1005.85 1005.39 1004.95 1004.57 1004.27 1004.10 1004.06 1004.14 1004.35 1004.66 1005.04 1005.46 1005.92 1006.39 1006.87 1007.35 1007.84 1008.33 1008.83 1009.34 1009.83 1010.30 1010.75 1011.16 1011.54 1011.88 1012.20 1012.50 1012.81 1013.12 1013.44 1013.77 1014.12 1014.46
1008.73 1008.67 1008.51 1008.27 1007.97 1007.63 1007.25 1006.85 1006.43 1006.01 1005.59 1005.19 1004.84 1004.54 1004.30 1004.15 1004.08 1004.11 1004.22 1004.42 1004.69 1005.02 1005.40 1005.83 1006.31 1006.82 1007.35 1007.90 1008.46 1009.01 1009.54 1010.02 1010.47 1010.86 1011.22 1011.53 1011.82 1012.10 1012.38 1012.67 1012.97 1013.28 1013.60 1013.91
1009.35 1009.26 1009.04 1008.70 1008.28 1007.80 1007.31 1006.81 1006.34 1005.90 1005.51 1005.17 1004.88 1004.65 1004.46 1004.33 1004.24 1004.20 1004.22 1004.30 1004.44 1004.65 1004.94 1005.30 1005.74 1006.24 1006.79 1007.39 1007.99 1008.58 1009.14 1009.65 1010.10 1010.49 1010.83 1011.12 1011.38 1011.63 1011.88 1012.14 1012.42 1012.70 1012.99 1013.27
1009.86 1009.76 1009.50 1009.10 1008.59 1008.03 1007.44 1006.89 1006.38 1005.94 1005.58 1005.30 1005.08 1004.91 1004.77 1004.65 1004.55 1004.45 1004.38 1004.34 1004.36 1004.44 1004.61 1004.88 1005.26 1005.72 1006.26 1006.87 1007.49 1008.11 1008.70 1009.22 1009.69 1010.08 1010.41 1010.69 1010.93 1011.15 1011.37 1011.60 1011.84 1012.09 1012.34 1012.60
1010.12 1010.02 1009.74 1009.31 1008.77 1008.17 1007.56 1006.98 1006.48 1006.07 1005.76 1005.54 1005.40 1005.30 1005.22 1005.13 1005.02 1004.89 1004.74 1004.61 1004.51 1004.47 1004.52 1004.69 1004.98 1005.38 1005.88 1006.46 1007.08 1007.70 1008.30 1008.84 1009.31 1009.71 1010.03 1010.30 1010.52 1010.72 1010.91 1011.11 1011.31 1011.53 1011.76 1011.98
1010.05 1009.94 1009.67 1009.25 1008.72 1008.14 1007.55 1007.02 1006.56 1006.22 1005.99 1005.86 1005.80 1005.79 1005.77 1005.73 1005.64 1005.50 1005.32 1005.12 1004.93 1004.79 1004.74 1004.81 1005.00 1005.32 1005.76 1006.29 1006.88 1007.48 1008.07 1008.61 1009.07 1009.47 1009.78 1010.04 1010.24 1010.42 1010.59 1010.76 1010.94 1011.13 1011.32 1011.53
1009.60 1009.50 1009.25 1008.87 1008.40 1007.89 1007.39 1006.95 1006.59 1006.36 1006.23 1006.21 1006.26 1006.34 1006.42 1006.44 1006.40 1006.29 1006.10 1005.87 1005.64 1005.43 1005.30 1005.28 1005.39 1005.62 1005.99 1006.45 1006.98 1007.54 1008.09 1008.59 1009.04 1009.42 1009.72 1009.96 1010.15 1010.31 1010.46 1010.61 1010.76 1010.93 1011.11 1011.30
1008.86 1008.75 1008.54 1008.23 1007.86 1007.47 1007.09 1006.79 1006.57 1006.47 1006.48 1006.58 1006.75 1006.94 1007.11 1007.22 1007.25 1007.19 1007.04 1006.83 1006.59 1006.36 1006.19 1006.11 1006.15 1006.31 1006.58 1006.97 1007.42 1007.90 1008.39 1008.85 1009.25 1009.59 1009.86 1010.08 1010.25 1010.39 1010.52 1010.66 1010.80 1010.96 1011.13 1011.30
1007.95 1007.84 1007.67 1007.45 1007.20 1006.95 1006.74 1006.59 1006.54 1006.59 1006.74 1006.97 1007.26 1007.55 1007.82 1008.03 1008.14 1008.16 1008.08 1007.92 1007.72 1007.51 1007.34 1007.24 1007.22 1007.32 1007.52 1007.81 1008.17 1008.56 1008.96 1009.34 1009.67 1009.95 1010.18 1010.36 1010.50 1010.63 1010.75 1010.87 1011.01 1011.16 1011.32 1011.49
1007.06 1006.95 1006.82 1006.69 1006.57 1006.47 1006.43 1006.46 1006.57 1006.77 1007.05 1007.40 1007.79 1008.18 1008.54 1008.83 1009.04 1009.14 1009.15 1009.08 1008.95 1008.79 1008.65 1008.55 1008.52 1008.56 1008.69 1008.89 1009.14 1009.42 1009.71 1009.98 1010.22 1010.43 1010.59 1010.72 1010.83 1010.93 1011.04 1011.15 1011.29 1011.43 1011.60 1011.76
1006.37 1006.25 1006.17 1006.12 1006.12 1006.18 1006.29 1006.47 1006.73 1007.06 1007.45 1007.89 1008.36 1008.82 1009.25 1009.62 1009.90 1010.10 1010.20 1010.22 1010.18 1010.09 1010.00 1009.93 1009.89 1009.89 1009.95 1010.05 1010.19 1010.35 1010.51 1010.66 1010.79 1010.90 1010.98 1011.06 1011.12 1011.19 1011.28 1011.39 1011.52 1011.66 1011.82 1011.98
1006.00 1005.88 1005.83 1005.86 1005.97 1006.14 1006.39 1006.70 1007.08 1007.50 1007.98 1008.48 1008.99 1009.49 1009.96 1010.38 1010.72 1010.99 1011.18 1011.29 1011.33 1011.33 1011.30 1011.25 1011.21 1011.18 1011.17 1011.18 1011.20 1011.23 1011.25 1011.27 1011.28 1011.28 1011.28 1011.28 1011.30 1011.34 1011.40 1011.50 1011.62 1011.76 1011.91 1012.05
1005.99 1005.87 1005.86 1005.95 1006.14 1006.41 1006.76 1007.16 1007.62 1008.11 1008.63 1009.16 1009.69 1010.20 1010.69 1011.12 1011.50 1011.82 1012.08 1012.26 1012.38 1012.44 1012.46 1012.45 1012.40 1012.34 1012.26 1012.17 1012.08 1011.97 1011.86 1011.75 1011.64 1011.54 1011.45 1011.38 1011.35 1011.35 1011.39 1011.46 1011.57 1011.70 1011.83 1011.95
1006.34 1006.23 1006.24 1006.37 1006.62 1006.96 1007.37 1007.84 1008.35 1008.88 1009.41 1009.95 1010.47 1010.97 1011.44 1011.88 1012.28 1012.62 1012.92 1013.15 1013.32 1013.43 1013.49 1013.48 1013.42 1013.32 1013.18 1013.00 1012.80 1012.58 1012.34 1012.11 1011.89 1011.70 1011.53 1011.40 1011.32 1011.28 1011.30 1011.35 1011.43 1011.54 1011.64 1011.73
1006.97 1006.87 1006.90 1007.07 1007.35 1007.73 1008.19 1008.69 1009.22 1009.77 1010.30 1010.82 1011.33 1011.80 1012.25 1012.67 1013.06 1013.42 1013.73 1013.98 1014.18 1014.32 1014.39 1014.38 1014.31 1014.16 1013.96 1013.70 1013.41 1013.08 1012.75 1012.43 1012.12 1011.85 1011.63 1011.45 1011.33 1011.27 1011.25 1011.28 1011.33 1011.40 1011.46 1011.51
1007.80 1007.72 1007.77 1007.95 1008.25 1008.66 1009.13 1009.66 1010.20 1010.74 1011.27 1011.77 1012.25 1012.70 1013.12 1013.52 1013.89 1014.24 1014.54 1014.81 1015.02 1015.16 1015.22 1015.21 1015.11 1014.93 1014.67 1014.35 1013.99 1013.60 1013.20 1012.81 1012.45 1012.13 1011.87 1011.67 1011.53 1011.44 1011.40 1011.39 1011.41 1011.43 1011.45 1011.44
1008.76 1008.69 1008.76 1008.95 1009.26 1009.68 1010.16 1010.69 1011.23 1011.77 1012.28 1012.77 1013.22 1013.65 1014.04 1014.42 1014.77 1015.10 1015.40 1015.65 1015.86 1015.99 1016.05 1016.02 1015.90 1015.69 1015.40 1015.04 1014.64 1014.21 1013.78 1013.36 1012.98 1012.65 1012.38 1012.17 1012.02 1011.91 1011.85 1011.82 1011.80 1011.77 1011.73 1011.65
1009.77 1009.72 1009.80 1010.00 1010.32 1010.74 1011.22 1011.75 1012.29 1012.82 1013.32 1013.79 1014.23 1014.63 1015.01 1015.36 1015.69 1016.00 1016.28 1016.53 1016.72 1016.84 1016.89 1016.85 1016.73 1016.51 1016.21 1015.85 1015.44 1015.01 1014.58 1014.17 1013.79 1013.47 1013.21 1013.01 1012.86 1012.76 1012.68 1012.62 1012.55 1012.47 1012.37 1012.23
1010.78 1010.77 1010.86 1011.07 1011.39 1011.81 1012.29 1012.81 1013.34 1013.86 1014.35 1014.81 1015.23 1015.62 1015.98 1016.31 1016.62 1016.91 1017.18 1017.41 1017.59 1017.72 1017.76 1017.73 1017.61 1017.40 1017.12 1016.77 1016.39 1015.98 1015.58 1015.20 1014.86 1014.57 1014.33 1014.15 1014.01 1013.90 1013.81 1013.73 1013.62 1013.50 1013.33 1013.13
1011.78 1011.79 1011.90 1012.13 1012.46 1012.87 1013.35 1013.86 1014.37 1014.88 1015.36 1015.80 1016.20 1016.56 1016.90 1017.21 1017.51 1017.78 1018.04 1018.26 1018.44 1018.57 1018.62 1018.61 1018.51 1018.33 1018.09 1017.78 1017.44 1017.07 1016.72 1016.38 1016.08 1015.82 1015.62 1015.46 1015.33 1015.23 1015.13 1015.02 1014.89 1014.72 1014.51 1014.25
1012.71 1012.76 1012.90 1013.15 1013.49 1013.90 1014.37 1014.86 1015.36 1015.84 1016.29 1016.71 1017.08 1017.42 1017.74 1018.03 1018.30 1018.56 1018.81 1019.02 1019.21 1019.34 1019.42 1019.43 1019.37 1019.23 1019.03 1018.78 1018.49 1018.18 1017.86 1017.57 1017.31 1017.09 1016.91 1016.77 1016.65 1016.54 1016.44 1016.32 1016.17 1015.97 1015.73 1015.44
1013.54 1013.64 1013.82 1014.10 1014.45 1014.86 1015.32 1015.79 1016.27 1016.72 1017.14 1017.52 1017.86 1018.17 1018.45 1018.72 1018.97 1019.21 1019.44 1019.66 1019.85 1020.00 1020.10 1020.14 1020.12 1020.03 1019.88 1019.67 1019.43 1019.17 1018.90 1018.64 1018.41 1018.20 1018.04 1017.90 1017.79 1017.69 1017.58 1017.46 1017.30 1017.10 1016.84 1016.54
1014.24 1014.40 1014.63 1014.93 1015.30 1015.72 1016.17 1016.63 1017.07 1017.49 1017.87 1018.21 1018.52 1018.79 1019.03 1019.27 1019.50 1019.72 1019.94 1020.15 1020.34 1020.51 1020.63 1020.71 1020.72 1020.67 1020.56 1020.40 1020.19 1019.96 1019.72 1019.48 1019.26 1019.06 1018.90 1018.77 1018.65 1018.55 1018.45 1018.33 1018.17 1017.98 1017.74 1017.45
1014.80 1015.01 1015.29 1015.63 1016.02 1016.45 1016.90 1017.34 1017.75 1018.14 1018.49 1018.79 1019.06 1019.29 1019.50 1019.70 1019.90 1020.11 1020.31 1020.52 1020.71 1020.88 1021.02 1021.12 1021.16 1021.14 1021.06 1020.92 1020.74 1020.53 1020.30 1020.07 1019.85 1019.65 1019.48 1019.34 1019.22 1019.12 1019.02 1018.91 1018.78 1018.61 1018.40 1018.13
1015.20 1015.47 1015.81 1016.19 1016.60 1017.04 1017.49 1017.92 1018.32 1018.68 1019.00 1019.27 1019.51 1019.71 1019.89 1020.07 1020.24 1020.42 1020.61 1020.81 1021.00 1021.17 1021.31 1021.42 1021.47 1021.47 1021.41 1021.29 1021.12 1020.92 1020.69 1020.46 1020.23 1020.03 1019.85 1019.70 1019.58 1019.48 1019.39 1019.30 1019.19 1019.06 1018.88 1018.65
1015.49 1015.82 1016.20 1016.62 1017.06 1017.52 1017.97 1018.40 1018.79 1019.14 1019.45 1019.70 1019.92 1020.10 1020.27 1020.42 1020.58 1020.74 1020.91 1021.09 1021.27 1021.43 1021.57 1021.68 1021.74 1021.74 1021.69 1021.58 1021.42 1021.22 1020.99 1020.76 1020.54 1020.33 1020.14 1019.99 1019.87 1019.78 1019.70 1019.63 1019.55 1019.44 1019.30 1019.10
Thickness
5749 5754 5754 5753 5755 5757 5754 5758 5756 5764 5769 5778 5780 5782 5782 5784 5783 5779 5775 5773 5771 5768 5765 5761 5758 5756 5754 5752 5751 5749 5746 5744 5742 5740 5739 5737 5736 5734 5733 5732 5731 5729 5728 5727
5732 5743 5745 5743 5749 5752 5753 5756 5758 5762 5766 5780 5781 5779 5777 5778 5777 5774 5772 5771 5769 5766 5763 5759 5757 5755 5753 5751 5749 5747 5744 5743 5741 5739 5737 5736 5734 5732 5731 5729 5728 5726 5725 5724
5719 5732 5729 5727 5745 5748 5750 5757 5757 5753 5764 5772 5768 5767 5768 5769 5771 5770 5770 5769 5766 5763 5761 5758 5756 5755 5752 5750 5748 5744 5741 5740 5739 5737 5734 5733 5732 5730 5727 5726 5725 5723 5722 5720
5711 5710 5698 5735 5751 5749 5746 5751 5758 5758 5760 5761 5761 5760 5761 5763 5763 5763 5764 5763 5762 5760 5758 5757 5755 5753 5751 5748 5744 5741 5738 5736 5735 5733 5732 5730 5729 5727 5725 5723 5721 5719 5717 5716
5699 5699 5708 5725 5734 5735 5731 5736 5749 5748 5749 5752 5754 5752 5750 5752 5754 5755 5756 5756 5755 5757 5756 5754 5752 5750 5746 5743 5740 5737 5734 5732 5731 5729 5727 5726 5724 5723 5721 5718 5716 5714 5712 5710
5689 5684 5688 5711 5724 5730 5724 5718 5736 5737 5738 5741 5743 5740 5739 5740 5742 5744 5745 5747 5747 5748 5749 5746 5746 5745 5740 5736 5733 5730 5729 5726 5725 5723 5721 5719 5718 5716 5715 5712 5710 5708 5705 5703
5679 5679 5695 5708 5716 5718 5701 5707 5721 5726 5729 5732 5732 5731 5729 5730 5731 5733 5735 5736 5738 5738 5738 5737 5737 5735 5731 5728 5724 5723 5722 5720 5717 5716 5714 5712 5709 5707 5706 5704 5701 5698 5695 5692
5673 5670 5679 5700 5703 5698 5699 5708 5713 5716 5719 5719 5718 5718 5718 5718 5719 5721 5723 5725 5726 5726 5725 5726 5726 5724 5720 5716 5716 5715 5713 5710 5708 5706 5705 5703 5700 5697 5696 5694 5691 5687 5683 5680
5673 5676 5684 5690 5689 5692 5697 5698 5702 5705 5708 5708 5706 5705 5705 5706 5707 5709 5711 5713 5714 5714 5713 5712 5712 5711 5707 5704 5705 5704 5702 5700 5698 5696 5694 5693 5691 5689 5687 5684 5682 5678 5674 5671
5664 5673 5676 5678 5681 5685 5689 5690 5693 5696 5698 5699 5697 5694 5693 5693 5694 5696 5699 5701 5701 5701 5700 5698 5698 5697 5695 5694 5694 5693 5691 5690 5688 5686 5684 5682 5681 5680 5677 5675 5672 5668 5665 5662
5657 5663 5666 5668 5670 5674 5678 5682 5684 5685 5688 5689 5686 5683 5681 5680 5681 5682 5684 5685 5686 5684 5684 5683 5683 5683 5684 5683 5682 5681 5680 5678 5677 5675 5673 5670 5667 5663 5662 5658 5656 5654 5654 5652
5649 5653 5653 5654 5659 5665 5668 5669 5670 5671 5671 5671 5672 5669 5668 5667 5668 5668 5669 5670 5670 5669 5669 5669 5669 5669 5669 5670 5670 5669 5668 5667 5667 5665 5662 5660 5656 5651 5642 5642 5638 5636 5633 5632
5647 5648 5648 5648 5651 5654 5656 5657 5657 5658 5656 5655 5656 5657 5656 5655 5655 5656 5656 5656 5655 5655 5654 5654 5654 5654 5655 5657 5657 5656 5656 5655 5656 5654 5652 5650 5647 5643 5638 5631 5625 5623 5620 5617
5642 5641 5639 5640 5640 5643 5646 5646 5646 5645 5643 5643 5643 5643 5643 5643 5642 5642 5642 5642 5643 5643 5642 5641 5641 5640 5642 5643 5644 5644 5644 5641 5642 5641 5639 5637 5635 5633 5630 5627 5623 5619 5610 5604
5637 5638 5635 5634 5633 5633 5635 5635 5635 5633 5632 5631 5631 5631 5630 5629 5628 5628 5629 5630 5630 5630 5629 5629 5628 5627 5629 5631 5632 5632 5632 5630 5628 5627 5627 5625 5623 5621 5619 5615 5612 5609 5606 5597
5632 5631 5631 5629 5627 5626 5626 5626 5626 5624 5624 5624 5623 5622 5620 5619 5619 5619 5619 5619 5619 5617 5616 5616 5615 5616 5618 5619 5619 5619 5616 5612 5614 5615 5615 5612 5610 5607 5604 5601 5598 5594 5591 5586
5626 5624 5624 5622 5621 5620 5619 5619 5619 5618 5617 5616 5615 5614 5613 5612 5610 5609 5609 5608 5607 5606 5606 5605 5605 5606 5607 5607 5608 5609 5608 5605 5601 5604 5602 5599 5596 5593 5590 5587 5583 5580 5576 5570
5625 5624 5622 5620 5619 5616 5614 5614 5613 5612 5610 5609 5608 5607 5605 5604 5602 5600 5600 5600 5599 5597 5596 5596 5595 5596 5596 5595 5595 5596 5596 5595 5593 5591 5587 5584 5581 5579 5576 5572 5568 5564 5560 5556
5619 5618 5617 5615 5614 5612 5610 5608 5607 5605 5603 5602 5601 5598 5597 5595 5594 5593 5592 5592 5591 5588 5585 5585 5582 5585 5584 5582 5581 5583 5583 5582 5579 5576 5573 5567 5567 5564 5560 5556 5552 5547 5543 5539
5611 5611 5610 5608 5607 5605 5602 5601 5599 5598 5596 5595 5593 5591 5589 5587 5587 5585 5584 5583 5580 5578 5575 5573 5574 5573 5572 5570 5568 5571 5570 5568 5565 5562 5558 5555 5551 5547 5543 5539 5535 5530 5526 5522
5603 5602 5602 5600 5598 5596 5595 5594 5592 5589 5588 5587 5585 5582 5581 5579 5578 5577 5576 5573 5566 5564 5564 5561 5562 5560 5559 5555 5555 5557 5555 5552 5549 5546 5542 5538 5534 5529 5525 5521 5517 5513 5509 5505
5594 5593 5592 5591 5589 5587 5586 5585 5584 5581 5579 5578 5576 5575 5573 5571 5570 5567 5563 5560 5557 5551 5554 5553 5549 5542 5541 5540 5544 5542 5539 5536 5532 5529 5525 5520 5515 5511 5507 5502 5499 5496 5492 5488
5585 5584 5583 5581 5580 5579 5578 5577 5575 5573 5571 5569 5567 5566 5565 5562 5562 5559 5554 5548 5546 5540 5540 5537 5530 5527 5525 5530 5529 5526 5523 5519 5515 5511 5507 5502 5498 5493 5489 5485 5482 5478 5476 5473
5574 5574 5574 5573 5572 5571 5568 5567 5565 5563 5562 5560 5558 5556 5555 5553 5550 5546 5541 5532 5530 5528 5527 5520 5516 5514 5514 5517 5514 5510 5506 5502 5498 5495 5491 5487 5483 5478 5474 5470 5467 5464 5461 5460
5567 5566 5566 5565 5564 5563 5560 5559 5557 5555 5554 5552 5549 5546 5545 5542 5538 5533 5529 5524 5518 5518 5516 5509 5504 5502 5503 5502 5498 5494 5490 5485 5481 5479 5476 5472 5468 5465 5461 5458 5454 5452 5450 5448
5559 5559 5557 5556 5556 5555 5555 5553 5551 5548 5546 5542 5539 5536 5532 5529 5525 5521 5517 5514 5510 5505 5504 5500 5496 5492 5490 5487 5483 5480 5476 5473 5470 5466 5462 5458 5454 5451 5448 5445 5442 5441 5439 5438
5550 5548 5548 5548 5546 5546 5544 5542 5539 5536 5534 5531 5527 5523 5520 5517 5514 5510 5507 5503 5499 5495 5491 5487 5483 5479 5476 5473 5470 5466 5463 5460 5456 5453 5449 5446 5443 5440 5438 5435 5434 5432 5430 5430